Regional Weather Roundup
Issued by NWS

Home | Current Version | Previous Version | Text Only | Print | Product List | Glossary Off
Versions: 1 2 3 4 5 6 7 8 9 10 11 12 13 14 15 16 17 18 19 20 21 22 23 24 25 26 27

000
ASUS45 KCYS 181910
RWRWY

WYOMING REGIONAL WEATHER ROUNDUP
NATIONAL WEATHER SERVICE CHEYENNE WY
1200 PM MST MON DEC 18 2017

NOTE:  "FAIR" INDICATES FEW OR NO CLOUDS BELOW 12,000 FEET
WITH NO SIGNIFICANT WEATHER AND/OR OBSTRUCTIONS TO VISIBILITY.

WYZ001-182000-
YELLOWSTONE NATIONAL PARK

CITY           SKY/WX    TMP DP  RH WIND       PRES   REMARKS
LK YELLOWSTONE   N/A     20  16  84 CALM      30.07F
W YELLOWSTONE  NOT AVBL

$$
WYZ002>013-054>058-071-098>099-182000-
NORTHERN WYOMING

CITY           SKY/WX    TMP DP  RH WIND       PRES   REMARKS
JACKSON        PTSUNNY   33  22  63 S21       30.10F WCI  21
CODY           PTSUNNY   44  21  40 W22G37    29.86F
GREYBULL       FAIR      21  18  88 SE5       29.92F WCI  15
WORLAND        FAIR      18  17  96 SW5       29.91F WCI  11
SHERIDAN       FAIR      46  27  47 CALM      29.75F
BUFFALO        FAIR      44  24  45 S9        29.77F
GILLETTE       FAIR      41  27  57 SW21      29.78S
HULETT         FAIR      43  27  52 SW15G22   29.76F
NEWCASTLE      FAIR      36  28  75 SE3       29.84S

$$
WYZ014>020-022>026-101>103-182000-
CENTRAL WYOMING

CITY           SKY/WX    TMP DP  RH WIND       PRES   REMARKS
BIG PINEY      FAIR      30  18  60 VRB5      30.14F WCI  25
PINEDALE       FAIR      32  19  59 CALM      30.14S
DUBOIS         FAIR      34  21  60 NW29G36   29.95F WCI  20
LANDER         FAIR      33  23  66 CALM      29.93F
RIVERTON       FAIR      35  22  58 SE5       29.94F WCI  31
CASPER         FLURRIES  36  23  59 SW36G43   29.92F WCI  22
DOUGLAS        FAIR      46  24  42 W24       29.86F

$$
WYZ021-027>030-104>119-182000-
SOUTHERN WYOMING

CITY           SKY/WX    TMP DP  RH WIND       PRES   REMARKS
EVANSTON       CLOUDY    31  22  69 SW10      30.21F WCI  22
FORT BRIDGER   CLOUDY    37  26  64 W14G24    30.21F WCI  29
ROCK SPRINGS   FAIR      34  22  61 W22G30    30.12F WCI  22
DIXON          CLOUDY    34  22  63 CALM      30.20F
RAWLINS        FAIR      33  22  63 SW23G35   30.06F WCI  21
SARATOGA       FAIR      36  23  60 SW23      30.09F WCI  24
LARAMIE        FAIR      37  25  61 SW29G36   30.01F WCI  25
CHEYENNE       FAIR      47  24  40 SW22G29   29.95S
TORRINGTON     FAIR      50  24  36 W26G33    29.88F
PINE BLUFFS    FAIR      54  19  26 W21G28    29.94R

$$




USA.gov is the U.S. government's official web portal to all federal, state and local government web resources and services.